Location: Sternwarte ZA, Rosenfeld-Brittheim
(48.2889°N, 8.6789°E)
Time: 07:50:54
(UTC+02:00)

ISS - Pass Details

Date: 24 May 2018
Orbit: 402 x 407 km, 51.6° (Epoch: 23 May)

Event Time Altitude Azimuth Distance (km) Brightness Sun altitude
Rises 02:56:13 0° 291° (WNW) 2,321 0.0 -17.8°
Reaches altitude 10° 02:58:20 10° 287° (WNW) 1,459 -1.1 -17.7°
Enters shadow 03:00:20 32° 271° (W) 711 -2.8 -17.6°
